Location: Niedergestelen
(46.3129°N, 7.7822°E)
Time: 06:20:23
(UTC+00:00)

Cosmos 1371 Rocket - Pass Details

Date: 01 December 2020
Orbit: 753 x 790 km, 74.0° (Epoch: 18 January)

Event Time Altitude Azimuth Distance (km) Brightness Sun altitude
Rises 17:56:56 0° 341° (NNW) 3,220 7.4 -22.2°
Reaches altitude 10° 17:59:22 10° 346° (NNW) 2,293 6.5 -22.6°
Enters shadow 18:03:36 47° 30° (NNE) 997 4.3 -23.4°
